Regional Weather Roundup
Issued by NWS Huntsville, AL

Home | Current Version | Previous Version | Text Only | Print | Product List | Glossary On
Versions: 1 2 3 4 5 6 7 8 9 10 11 12 13 14 15 16 17 18 19 20 21 22 23 24 25 26 27 28
000
ASUS44 KHUN 281510
RWRHUN

WEATHER ROUNDUP FOR THE TENNESSEE VALLEY
NATIONAL WEATHER SERVICE HUNTSVILLE AL
1000 AM CDT WED JUN 28 2017

ALZ001>004-281600-
NORTHWEST ALABAMA

CITY           SKY/WX    TMP DP  RH WIND       PRES   REMARKS
COURTLAND HCN    N/A     79 N/A N/A E6          N/A
RUSSELLVILLE     N/A     79 N/A N/A MISG        N/A
SHOALS AIRPORT SUNNY     80  58  46 SE7       30.14S
SHOALS TVA RES   N/A     75 N/A N/A MISG        N/A
$$

ALZ005>007-016-281600-
NORTH CENTRAL ALABAMA

CITY           SKY/WX    TMP DP  RH WIND       PRES   REMARKS
CULLMAN AG STN   N/A     77 N/A N/A E5          N/A
DECATUR AP     SUNNY     79  57  46 SE9       30.14F
HUNTSVILLE AP  MOSUNNY   78  58  49 SE13      30.14F
MERIDIANVILLE  SUNNY     77  52  41 CALM      30.15S
REDSTONE ARSN  SUNNY     78  59  52 S7        30.13F
VINEMONT AP    FAIR      77  56  47 E8        30.17F
$$

ALZ008>010-281600-
NORTHEAST ALABAMA

CITY           SKY/WX    TMP DP  RH WIND       PRES   REMARKS
ALBERTVILLE    SUNNY     77  64  65 SE6       30.14F
FORT PAYNE     SUNNY     77  54  44 SE5       30.15F
SCOTTSBORO AP  SUNNY     75  61  60 N5        30.16F
SCOTTSBORO HCN   N/A     72 N/A N/A MISG        N/A
VALLEY HEAD      N/A     75 N/A N/A MISG        N/A
$$

TNZ076-096-097-281600-
SOUTHEASTERN MIDDLE TENNESSEE

CITY           SKY/WX    TMP DP  RH WIND       PRES   REMARKS
TULLAHOMA      SUNNY     75  54  46 SE6       30.17S
WINCHESTER     SUNNY     77  55  47 SE6       30.16F
$$

...SURROUNDING SITES...

CITY           SKY/WX    TMP DP  RH WIND       PRES   REMARKS
ATLANTA        MOSUNNY   81  64  56 E7        30.17R
ANNISTON       SUNNY     78  61  55 E8        30.14S
BIRMINGHAM     MOSUNNY   81  54  39 SE8       30.16R
CHATTANOOGA    MOSUNNY   75  58  55 CALM      30.17F
CORINTH        FAIR      81  61  50 SE10      30.11F
DALTON         SUNNY     73  59  60 SE3       30.17F
GADSDEN        SUNNY     78  61  55 NE7       30.16S
GOLDEN TRNGL   SUNNY     79  64  61 SE7       30.07
JACKSON TN     SUNNY     79  64  60 S7        30.10F
MEMPHIS        MOSUNNY   82  65  56 S9        30.08S
NASHVILLE      MOSUNNY   79  57  46 SE8       30.16R
OXFORD MS      FAIR      79  63  57 SE7       30.11S
ROME           SUNNY     76  62  62 E6        30.16F
SAVANNAH       SUNNY     79  61  53 S10       30.11S
SELMER         SUNNY     79  64  61 SE9       30.11F
TUPELO         SUNNY     80  62  54 SE6       30.10R
TUSCALOOSA     SUNNY     80  64  58 E5        30.10F
$$

...GULF COAST WEATHER...

CITY           SKY/WX    TMP DP  RH WIND       PRES   REMARKS
GULFPORT       CLOUDY    82  74  76 SE10      30.02S
PASCAGOULA     CLOUDY    81  73  76 SE6       30.03S
MOBILE         CLOUDY    82  73  74 E8        30.05S
GULF SHORES    CLOUDY    79  79 100 CALM      30.03R
PENSACOLA      CLOUDY    82  74  76 SE8       30.03S
DESTIN         MOSUNNY   85  82  91 VRB5      30.04S HX 102
PANAMA CITY    MOSUNNY   79  74  84 E8        30.05S
APPALACHICOLA  CLOUDY    80  79  96 E10       30.05R
$$





USA.gov is the U.S. government's official web portal to all federal, state and local government web resources and services.